[[{"header":{"parameterUnit":"m.s-1","parameterCategory":1,"la1":30.2992,"la2":30.254,"lo1":-89.0895,"lo2":-89.0443,"dy":0.0025,"dx":0.0025,"nx":19,"ny":19,"refTime":"2026-05-12T21:00:00:Z","depth":0,"parameterNumber":2,"parameterNumberName":"U-component_of_WINDS"},"data":[0,0,0,-4.8495,-4.8495,-4.8492,-4.8492,-4.8537,-4.8538,0,0,0,0,0,0,0,0,0,0,0,-4.8525,-4.8527,-4.8495,-4.8495,-4.8492,-4.8492,-4.8537,-4.8538,0,0,0,0,0,0,0,0,0,0,0,-4.8525,-4.8526,-4.8528,-4.8495,-4.8493,-4.8492,-4.8537,-4.8522,0,0,0,0,0,0,0,0,0,0,-4.8516,-4.8574,-4.8526,-4.8528,-4.8496,-4.8493,-4.8492,-4.852,-4.8523,-4.856,0,-4.8601,0,-4.857,-4.8544,-4.8545,0,0,0,-4.8473,-4.8573,-4.8544,-4.8528,-4.8496,-4.8493,-4.8487,-4.8521,-4.8524,-4.8563,-4.8601,-4.8601,-4.8571,-4.8545,-4.8545,-4.8829,-4.8832,0,0,-4.8473,-4.8542,-4.8542,-4.8548,-4.8551,-4.8488,-4.8488,-4.8522,-4.8568,-4.8601,-4.8601,-4.8572,-4.8546,-4.8546,-4.8827,-4.883,0,0,0,-4.8489,-4.8543,-4.8512,-4.8547,-4.8543,-4.8488,-4.8488,-4.8566,-4.855,-4.8601,-4.8572,-4.8546,-4.8547,-4.8824,-4.8828,-4.9011,0,0,0,-4.8488,-4.8551,-4.8514,-4.8556,-4.8543,-4.8555,-4.8533,-4.8548,-4.855,-4.8572,-4.8546,-4.8548,-4.8822,-4.8826,-4.9,-4.9087,0,0,0,-4.8515,-4.8554,-4.8564,-4.8559,-4.856,-4.8552,-4.8538,-4.8547,-4.8533,-4.8545,-4.8548,-4.882,-4.8826,-4.8991,-4.9071,-4.9181,0,0,0,-4.8565,-4.8729,-4.8568,-4.8739,-4.8561,-4.8665,-4.8537,-4.8611,-4.8643,-4.8547,-4.8822,-4.8828,-4.8988,-4.9061,-4.9171,-4.9287,-4.9341,0,0,-4.881,-4.8761,-4.8855,-4.8711,-4.8862,-4.866,-4.8836,-4.8801,-4.8741,-4.8803,-4.8809,-4.9004,-4.907,-4.9179,-4.9619,-4.9663,0,0,0,-4.8956,-4.9025,-4.905,-4.9082,-4.9058,-4.9043,-4.8973,-4.896,-4.9009,-4.8787,-4.907,-4.9108,-4.9169,-4.9221,-4.9258,-4.9306,-4.8855,-4.8854,-4.8853,-4.9403,-4.9313,-4.9463,-4.9373,-4.9406,-4.9329,-4.9347,-4.9315,-4.9218,-4.9286,-4.9305,-4.9583,-4.9647,-4.9674,-4.9725,-4.9358,-4.9359,-4.9359,-4.936,-4.9753,-4.9837,-4.9698,-4.9795,-4.9699,-4.9778,-4.971,-4.9637,-4.9697,-4.9563,-4.9612,-4.9474,-4.9725,-4.9764,-4.9372,-4.937,-4.9369,-4.9367,-4.9366,-5.0037,-5.0061,-5.0039,-5.0073,-5.011,-5.0011,-5.0074,-4.9984,-4.99,-4.9949,-4.9958,-4.9955,-4.9941,-4.9959,-4.996,-4.9961,-4.9962,-4.9963,-4.9963,-5.0342,-5.031,-5.0374,-5.0358,-5.0364,-5.0362,-5.0283,-5.0287,-5.0269,-5.0198,-5.0198,-5.0094,-4.9765,-4.9685,-4.9978,-4.9975,-4.9973,-4.9972,-4.9971,-5.0733,-5.0629,-5.0728,-5.0734,-5.0705,-5.0746,-5.0628,-5.0643,-5.0633,-5.0667,-5.0549,-5.0321,-5.0265,-5.0235,-5.0168,-5.0568,-5.0568,-5.0568,-5.0568,-5.0974,-5.0935,-5.1013,-5.1029,-5.1033,-5.0935,-5.1048,-5.0987,-5.0908,-5.0895,-5.0824,-5.0727,-5.07,-5.066,-5.062,-5.0557,-5.1047,-5.1047,-5.1047,-5.121,-5.1166,-5.1281,-5.1199,-5.1168,-5.1144,-5.1247,-5.1269,-5.1158,-5.1065,-5.0884,-5.0864,-5.0706,-5.0659,-5.0566,-5.0507,-5.0388,0,0]},{"header":{"parameterUnit":"m.s-1","parameterCategory":1,"la1":30.2992,"la2":30.254,"lo1":-89.0895,"lo2":-89.0443,"dy":0.0025,"dx":0.0025,"nx":19,"ny":19,"refTime":"2026-05-12T21:00:00:Z","depth":0,"parameterNumber":3,"parameterNumberName":"V-component_of_WINDS"},"data":[0,0,0,-1.0333,-1.0338,-1.0597,-1.0598,-1.0903,-1.0905,0,0,0,0,0,0,0,0,0,0,0,-1.0239,-1.024,-1.0333,-1.0339,-1.0597,-1.0598,-1.0902,-1.0905,0,0,0,0,0,0,0,0,0,0,0,-1.0238,-1.024,-1.0242,-1.0339,-1.0597,-1.0598,-1.0902,-1.0716,0,0,0,0,0,0,0,0,0,0,-1.047,-1.0366,-1.024,-1.0242,-1.0341,-1.0596,-1.0599,-1.0708,-1.0728,-1.0774,0,-1.0809,0,-1.0861,-1.0924,-1.0925,0,0,0,-1.0352,-1.0349,-1.0434,-1.0242,-1.0343,-1.0596,-1.0484,-1.0719,-1.0742,-1.08,-1.0813,-1.0825,-1.0866,-1.0926,-1.0927,-1.1142,-1.1142,0,0,-1.0338,-1.0277,-1.0418,-1.0448,-1.0404,-1.0476,-1.0492,-1.0734,-1.0744,-1.0814,-1.0833,-1.0871,-1.0927,-1.093,-1.1141,-1.1142,0,0,0,-1.0288,-1.0266,-1.0346,-1.0434,-1.0483,-1.0483,-1.0502,-1.0734,-1.0765,-1.0836,-1.0875,-1.0929,-1.0932,-1.1141,-1.1142,-1.1099,0,0,0,-1.028,-1.0237,-1.0339,-1.0304,-1.0478,-1.0611,-1.0496,-1.0748,-1.0777,-1.0873,-1.0929,-1.0935,-1.1141,-1.1141,-1.1099,-1.1089,0,0,0,-1.0228,-1.0231,-1.0262,-1.03,-1.0409,-1.0609,-1.0654,-1.0756,-1.08,-1.0925,-1.0936,-1.1141,-1.1141,-1.11,-1.109,-1.1127,0,0,0,-1.0156,-1.0222,-1.026,-1.035,-1.0407,-1.058,-1.0653,-1.0786,-1.0888,-1.093,-1.1141,-1.1141,-1.11,-1.109,-1.1126,-1.1146,-1.1148,0,0,-1.0206,-1.0226,-1.0284,-1.0325,-1.0475,-1.0545,-1.069,-1.0843,-1.0912,-1.1062,-1.1068,-1.1099,-1.109,-1.1127,-1.1184,-1.1185,0,0,0,-1.0278,-1.0319,-1.0372,-1.0465,-1.0581,-1.0681,-1.0817,-1.0874,-1.1003,-1.0976,-1.1125,-1.1121,-1.1145,-1.1157,-1.1159,-1.1183,-1.1145,-1.1144,-1.1144,-1.0261,-1.0344,-1.0444,-1.0557,-1.0647,-1.0786,-1.0866,-1.0967,-1.1026,-1.1059,-1.1104,-1.1128,-1.114,-1.1142,-1.1166,-1.1122,-1.1122,-1.1122,-1.1121,-1.0341,-1.0411,-1.0486,-1.0609,-1.0697,-1.0803,-1.0939,-1.0977,-1.1089,-1.1102,-1.1128,-1.1134,-1.114,-1.1166,-1.1119,-1.1119,-1.112,-1.112,-1.112,-1.0338,-1.0386,-1.0452,-1.0594,-1.0694,-1.0808,-1.0911,-1.0988,-1.1062,-1.1087,-1.1142,-1.1143,-1.1153,-1.1107,-1.1108,-1.1108,-1.1108,-1.1108,-1.1108,-1.0309,-1.0385,-1.0461,-1.0589,-1.0658,-1.0759,-1.0899,-1.097,-1.1068,-1.1116,-1.1117,-1.1172,-1.1125,-1.1111,-1.111,-1.1109,-1.1109,-1.1109,-1.1109,-1.0358,-1.0359,-1.0476,-1.0545,-1.0701,-1.0795,-1.0892,-1.1029,-1.1099,-1.1148,-1.1198,-1.1151,-1.1178,-1.1178,-1.1167,-1.1179,-1.1179,-1.1179,-1.1179,-1.0355,-1.0376,-1.0513,-1.0617,-1.0729,-1.0828,-1.0959,-1.1068,-1.1182,-1.123,-1.124,-1.1232,-1.1228,-1.1258,-1.1256,-1.1247,-1.128,-1.128,-1.128,-1.039,-1.0424,-1.052,-1.0629,-1.0756,-1.0864,-1.099,-1.1109,-1.1238,-1.1286,-1.127,-1.1265,-1.1254,-1.1246,-1.1292,-1.1288,-1.1273,0,0]}]]